Weather History for Yellowstone, WY

Change the Weather History Date:

Sunday, March 10, 2013

  Actual Average Record
Temperature  
Mean Temperature 16 °F 21 °F  
Max Temperature 39 °F 35 °F 44 °F (2011)
Min Temperature -7 °F 8 °F -16 °F (2006)
Degree Days  
Heating Degree Days 49 44  
Month to date heating degree days 466 452  
Since 1 July heating degree days 8333 8389  
Cooling Degree Days 0 0  
Month to date cooling degree days 0 0  
Year to date cooling degree days 0 0  
Moisture  
Dew Point 5 °F    
Average Humidity 61    
Maximum Humidity 87    
Minimum Humidity 35    
Precipitation  
Precipitation 0.00 in 0.02 in 0.54 in (2014)
Month to date precipitation 0.67 0.28  
Year to date precipitation 3.01 3.80  
Sea Level Pressure  
Sea Level Pressure 30.43 in    
Wind  
Wind Speed 2 mph (ESE)    
Max Wind Speed 12 mph    
Max Gust Speed 18 mph    
T = Trace of Precipitation, MM = Missing Value Source: NWS Daily Summary

Daily Weather History Graph

Daily Weather History Graph

Search for Another Location

Airport:

Trip Planner

Search our weather history database for the weather conditions in past years. The results will help you decide how hot, cold, wet, or windy it might be!

Date:

Astronomy

Mar. 10, 2013 Rise Set
Actual Time 7:42 AM MDT 7:21 PM MDT
Civil Twilight 7:13 AM MDT 7:50 PM MDT
Nautical Twilight 6:39 AM MDT 8:24 PM MDT
Astronomical Twilight 6:05 AM MDT 8:58 PM MDT
Moon 6:46 AM MDT (3/10) 6:33 PM MDT (3/10)
Length of Visible Light 12h 37m
Length of Day
11h 39m
Waning Crescent, 1% of the Moon is Illuminated
Mar 10
Waning Crescent
Mar 11
New
Mar 19
First Quarter
Mar 27
Full
Apr 2
Last Quarter

Hourly Weather History & Observations

Time (MDT) Temp. Windchill Dew Point Humidity Pressure Visibility Wind Dir Wind Speed Gust Speed Precip Events Conditions
12:56 AM 3.0 °F - -0.9 °F 84% 30.42 in - Calm Calm - N/A   Unknown
1:56 AM -0.0 °F - -4.0 °F 83% 30.44 in - Calm Calm - N/A   Unknown
3:56 AM -2.0 °F - -6.0 °F 83% 30.45 in - Calm Calm - N/A   Unknown
4:56 AM -2.9 °F - -8.0 °F 79% 30.49 in - Calm Calm - N/A   Unknown
5:56 AM -2.9 °F - -8.0 °F 79% 30.50 in - Calm Calm - N/A   Unknown
6:56 AM -6.0 °F - -11.0 °F 79% 30.54 in - Calm Calm - N/A   Unknown
7:56 AM -7.1 °F - -11.9 °F 79% 30.58 in - Calm Calm - N/A   Unknown
8:56 AM 1.0 °F - -2.0 °F 87% 30.54 in - Calm Calm - N/A   Unknown
9:56 AM 3.9 °F - -2.0 °F 76% 30.53 in - Calm Calm - N/A   Unknown
10:56 AM 8.1 °F - 1.0 °F 73% 30.56 in - Calm Calm - N/A   Unknown
11:56 AM 16.0 °F - 3.9 °F 59% 30.51 in - Calm Calm - N/A   Unknown
12:56 PM 21.9 °F - 7.0 °F 53% 30.46 in - Calm Calm - N/A   Unknown
1:56 PM 28.0 °F - 9.0 °F 45% 30.41 in - Calm Calm - N/A   Unknown
2:56 PM 28.9 °F 23.9 °F 10.9 °F 47% 30.39 in - ESE 4.6 mph - N/A   Unknown
3:56 PM 32.0 °F 27.5 °F 14.0 °F 48% 30.36 in - ESE 4.6 mph - N/A   Unknown
4:56 PM 35.1 °F 27.9 °F 10.9 °F 37% 30.36 in - WNW 9.2 mph - N/A   Unknown
5:56 PM 32.0 °F 26.4 °F 14.0 °F 48% 30.36 in - Variable 5.8 mph - N/A   Unknown
6:56 PM 28.0 °F - 12.9 °F 53% 30.42 in - Calm Calm - N/A   Unknown
7:56 PM 26.1 °F - 10.0 °F 51% 30.45 in - Calm Calm - N/A   Unknown
8:56 PM 24.1 °F 19.7 °F 14.0 °F 65% 30.41 in - Variable 3.5 mph - N/A   Unknown
9:56 PM 24.1 °F - 16.0 °F 71% 30.39 in - Calm Calm - N/A   Unknown
10:56 PM 25.0 °F 19.3 °F 18.0 °F 75% 30.33 in - Variable 4.6 mph - N/A   Unknown
11:56 PM 25.0 °F 20.7 °F 18.0 °F 75% 30.26 in - Variable 3.5 mph - N/A   Unknown
12:56 AM 25.0 °F 18.1 °F 18.0 °F 75% 30.21 in - Variable 5.8 mph - N/A   Unknown